Location: Irma
(52.9170°N, 111.2330°W)
Time: 18:03:43
(UTC-06:00)

Cosmos 1633 Rocket - Visible Passes

Search period start: 28 June 2016 00:00
Search period end: 08 July 2016 00:00
Orbit: 607 x 625 km, 82.5° (Epoch: 28 June)

Date Brightness Start Highest point End Pass type
(mag) Time Alt. Az. Time Alt. Az. Time Alt. Az.
29 Jun 5.2 00:10:32 10° WSW 00:14:04 24° WNW 00:17:38 10° NNW visible
29 Jun 3.0 22:47:57 10° S 22:52:20 81° E 22:56:44 10° NNE visible
30 Jun 5.7 00:28:06 10° W 00:30:45 16° WNW 00:33:25 10° NNW visible
30 Jun 3.6 23:04:25 10° SSW 23:08:45 61° WNW 23:13:06 10° N visible
01 Jul 6.2 00:47:02 10° WNW 00:47:32 10° NW 00:48:01 10° NW visible
01 Jul 4.5 23:21:10 10° SW 23:25:14 37° WNW 23:29:20 10° N visible
02 Jul 5.3 23:38:15 10° WSW 23:41:49 24° WNW 23:45:24 10° N visible
03 Jul 5.8 23:55:46 10° W 23:58:30 16° WNW 00:01:14 10° NNW visible
05 Jul 6.3 00:14:26 10° WNW 00:15:16 10° NW 00:16:05 10° NW visible
05 Jul 4.6 22:48:54 10° SW 22:53:00 39° WNW 22:57:05 10° N visible
06 Jul 5.4 23:05:57 10° WSW 23:09:34 25° WNW 23:13:11 10° N visible
07 Jul 5.9 23:23:26 10° W 23:26:14 16° WNW 23:29:01 10° NNW visible
